CW5439 Weather Reports


Display with metric or nautical units.
time (UTC)temp
F
wind
direction
speed
MPH
gust
MPH
rain 1hr
in
rain 24hr
in
rain mn
in
humidity
%
barometer
mb
20260507172705 53 195 3.0 10.0 0.00 0.00 0.00 73 1009.9
20260507171707 53 198 5.0 10.0 0.00 0.00 0.00 73 1009.9
20260507171205 53 199 4.0 9.0 0.00 0.00 0.00 73 1009.9
20260507170206 53 211 3.0 7.0 0.00 0.00 0.00 74 1009.9
20260507165206 53 199 3.0 6.0 0.00 0.00 0.00 75 1010.0
20260507164705 53 213 2.0 6.0 0.00 0.00 0.00 74 1010.1
20260507164205 53 190 1.0 3.0 0.00 0.00 0.00 75 1010.1
20260507163705 53 227 1.0 5.0 0.00 0.00 0.00 75 1010.2
20260507163205 53 222 1.0 5.0 0.00 0.00 0.00 75 1010.2
20260507162705 53 232 2.0 6.0 0.00 0.00 0.00 75 1010.2
20260507162206 52 207 3.0 6.0 0.00 0.00 0.00 74 1010.2
20260507161708 53 200 3.0 8.0 0.00 0.00 0.00 75 1010.2
20260507161205 53 227 4.0 9.0 0.00 0.00 0.00 75 1010.3
20260507160705 53 264 4.0 9.0 0.00 0.00 0.00 76 1010.2
20260507160206 52 288 4.0 9.0 0.00 0.00 0.00 76 1010.3
20260507155706 52 226 3.0 8.0 0.00 0.00 0.00 76 1010.4
20260507155206 52 257 4.0 8.0 0.00 0.00 0.00 75 1010.4
20260507154705 52 261 4.0 10.0 0.00 0.00 0.00 75 1010.4
20260507153206 52 258 6.0 13.0 0.00 0.00 0.00 74 1010.4
20260507152706 52 231 7.0 13.0 0.00 0.00 0.00 72 1010.5
20260507151205 54 225 9.0 19.0 0.00 0.00 0.00 67 1010.5
20260507150205 55 202 9.0 18.0 0.00 0.00 0.00 67 1010.3
20260507145704 55 180 9.0 18.0 0.00 0.00 0.00 67 1010.3
20260507145207 55 205 9.0 20.0 0.00 0.00 0.00 67 1010.4
20260507144705 55 167 8.0 20.0 0.00 0.00 0.00 67 1010.6
20260507144205 55 207 7.0 20.0 0.00 0.00 0.00 67 1010.5
20260507143705 55 213 7.0 21.0 0.00 0.00 0.00 68 1010.5
20260507143205 55 181 8.0 21.0 0.00 0.00 0.00 67 1010.6
20260507142205 55 210 8.0 19.0 0.00 0.00 0.00 67 1010.6
20260507141705 55 113 6.0 14.0 0.00 0.00 0.00 68 1010.6
20260507140705 55 173 8.0 17.0 0.00 0.00 0.00 67 1010.7
20260507140205 56 217 8.0 17.0 0.00 0.00 0.00 67 1010.7
20260507135705 56 205 8.0 15.0 0.00 0.00 0.00 69 1010.7
20260507135206 56 191 8.0 17.0 0.00 0.00 0.00 68 1010.7
20260507134705 56 178 8.0 17.0 0.00 0.00 0.00 69 1010.8
20260507134205 56 237 7.0 15.0 0.00 0.00 0.00 68 1010.9
20260507133734 56 235 6.0 18.0 0.00 0.00 0.00 70 1010.8
20260507133205 56 233 7.0 19.0 0.00 0.00 0.00 69 1010.8
20260507132706 55 217 9.0 19.0 0.00 0.00 0.00 69 1010.8
20260507132206 55 171 10.0 19.0 0.00 0.00 0.00 69 1010.9
20260507131705 55 204 10.0 19.0 0.00 0.00 0.00 68 1010.8
20260507131206 55 167 9.0 19.0 0.00 0.00 0.00 69 1010.8
20260507130705 55 167 8.0 19.0 0.00 0.00 0.00 70 1011.0
20260507130205 54 211 8.0 17.0 0.00 0.00 0.00 71 1010.9
20260507125206 54 194 7.0 15.0 0.00 0.00 0.00 72 1011.0
20260507124707 54 161 6.0 12.0 0.00 0.00 0.00 71 1011.1
20260507124208 54 207 5.0 11.0 0.00 0.00 0.00 72 1011.1
20260507123205 53 202 5.0 13.0 0.00 0.00 0.00 72 1011.2
20260507122205 52 186 6.0 12.0 0.00 0.00 0.00 73 1011.2
20260507121205 52 171 4.0 12.0 0.00 0.00 0.00 72 1011.4
20260507120705 52 185 5.0 12.0 0.00 0.00 0.00 74 1011.4
20260507115705 51 192 6.0 12.0 0.00 0.00 0.00 76 1011.4
20260507115206 50 227 7.0 12.0 0.00 0.00 0.00 75 1011.4
20260507114705 50 200 6.0 11.0 0.00 0.00 0.00 76 1011.4
20260507114205 50 239 5.0 11.0 0.00 0.00 0.00 76 1011.5
20260507113205 49 209 5.0 12.0 0.00 0.00 0.00 76 1011.5
20260507112706 49 182 5.0 12.0 0.00 0.00 0.00 76 1011.5
20260507112206 49 201 5.0 18.0 0.00 0.00 0.00 76 1011.5
20260507111705 49 224 7.0 18.0 0.00 0.00 0.00 76 1011.5
20260507111221 49 198 7.0 16.0 0.00 0.00 0.00 75 1011.5
20260507110705 50 201 6.0 14.0 0.00 0.00 0.00 74 1011.5
20260507110257 50 217 6.0 13.0 0.00 0.00 0.00 74 1011.6
20260507105705 50 196 6.0 13.0 0.00 0.00 0.00 74 1011.5
20260507105205 50 216 6.0 14.0 0.00 0.00 0.00 73 1011.5
20260507104705 50 197 6.0 14.0 0.00 0.00 0.00 72 1011.5
20260507104205 50 184 7.0 14.0 0.00 0.00 0.00 72 1011.6
20260507103707 51 205 7.0 14.0 0.00 0.00 0.00 72 1011.7
20260507103205 51 197 5.0 12.0 0.00 0.00 0.00 73 1011.6
20260507102705 51 213 5.0 12.0 0.00 0.00 0.00 74 1011.6
20260507102206 51 196 6.0 14.0 0.00 0.00 0.00 73 1011.5
20260507101705 51 214 7.0 14.0 0.00 0.00 0.00 73 1011.5
20260507101205 51 194 7.0 15.0 0.00 0.00 0.00 72 1011.5
20260507100705 52 184 7.0 15.0 0.00 0.00 0.00 72 1011.4
20260507100205 52 211 7.0 15.0 0.00 0.00 0.00 72 1011.3
20260507095705 52 223 7.0 18.0 0.00 0.00 0.00 73 1011.4
20260507095205 52 214 8.0 18.0 0.00 0.00 0.00 71 1011.4
20260507094706 52 159 8.0 18.0 0.00 0.00 0.00 71 1011.3
20260507094205 53 176 6.0 15.0 0.00 0.00 0.00 71 1011.4
20260507093705 53 216 5.0 9.0 0.00 0.00 0.00 72 1011.3
20260507093205 53 225 4.0 9.0 0.00 0.00 0.00 70 1011.3
20260507092705 52 184 4.0 9.0 0.00 0.00 0.00 73 1011.2
20260507092206 52 156 4.0 8.0 0.00 0.00 0.00 70 1011.2
20260507091705 52 211 3.0 9.0 0.00 0.00 0.00 72 1011.2
20260507091205 52 126 4.0 9.0 0.00 0.00 0.00 72 1011.2
20260507090731 51 234 3.0 8.0 0.00 0.00 0.00 71 1011.3
20260507090205 51 167 3.0 8.0 0.00 0.00 0.00 70 1011.3
20260507085205 52 127 3.0 10.0 0.00 0.00 0.00 70 1011.4
20260507084706 52 185 4.0 10.0 0.00 0.00 0.00 70 1011.4
20260507084206 52 188 5.0 10.0 0.00 0.00 0.00 70 1011.4
20260507083205 52 113 3.0 9.0 0.00 0.00 0.00 70 1011.4
20260507082705 52 219 3.0 10.0 0.00 0.00 0.00 71 1011.4
20260507081706 51 209 6.0 10.0 0.00 0.00 0.00 70 1011.5
20260507081205 52 215 5.0 10.0 0.00 0.00 0.00 69 1011.5
20260507080704 52 161 4.0 9.0 0.00 0.00 0.00 68 1011.4
20260507080205 53 168 3.0 9.0 0.00 0.00 0.00 68 1011.4
20260507075705 52 119 3.0 11.0 0.00 0.00 0.00 68 1011.5
20260507075206 52 108 4.0 11.0 0.00 0.00 0.00 72 1011.5
20260507074706 51 172 4.0 11.0 0.00 0.00 0.00 69 1011.4
20260507074205 52 159 3.0 8.0 0.00 0.00 0.00 70 1011.4
20260507072705 50 207 3.0 9.0 0.00 0.00 0.00 72 1011.5
20260507072206 50 169 3.0 8.0 0.00 0.00 0.00 73 1011.5
20260507071705 49 230 3.0 8.0 0.00 0.00 0.00 72 1011.5
20260507070705 50 241 3.0 9.0 0.00 0.00 0.00 72 1011.5
20260507070205 50 229 4.0 9.0 0.00 0.00 0.00 73 1011.5
20260507065705 50 147 5.0 9.0 0.00 0.00 0.00 72 1011.5
20260507065205 49 181 2.0 7.0 0.00 0.00 0.00 74 1011.5
20260507064706 49 210 1.0 3.0 0.00 0.00 0.00 78 1011.6
20260507064205 47 205 1.0 3.0 0.00 0.00 0.00 79 1011.6
20260507063707 46 225 1.0 4.0 0.00 0.00 0.00 81 1011.6
20260507062706 44 202 2.0 4.0 0.00 0.00 0.00 83 1011.6
20260507061706 43 180 2.0 4.0 0.00 0.00 0.00 85 1011.6
20260507061205 43 201 1.0 2.0 0.00 0.00 0.00 85 1011.6
20260507060722 43 285 0.0 1.0 0.00 0.00 0.00 85 1011.7
20260507060205 42 285 0.0 1.0 0.00 0.00 0.00 85 1011.7
20260507055705 42 285 0.0 1.0 0.00 0.00 0.00 85 1011.7
20260507054705 42 285 0.0 0.0 0.00 0.00 0.00 84 1011.8
20260507054227 42 285 0.0 0.0 0.00 0.00 0.00 84 1011.7
20260507053727 41 285 0.0 0.0 0.00 0.00 0.00 84 1011.7
20260507052206 41 285 0.0 1.0 0.00 0.00 0.00 83 1011.8
20260507051721 41 285 0.0 1.0 0.00 0.00 0.00 83 1011.8
20260507051204 41 285 0.0 1.0 0.00 0.00 0.00 83 1011.8
20260507050705 41 285 0.0 1.0 0.00 0.00 0.00 83 1011.8
20260507050205 41 285 0.0 2.0 0.00 0.00 0.00 83 1011.8
20260507045705 41 285 0.0 3.0 0.00 0.00 0.00 83 1011.8
20260507044705 41 285 1.0 2.0 0.00 0.00 0.00 83 1011.8
20260507044205 41 146 1.0 3.0 0.00 0.00 0.00 83 1011.8
20260507043705 41 144 1.0 4.0 0.00 0.00 0.00 83 1011.8
20260507043206 41 134 2.0 4.0 0.00 0.00 0.00 83 1011.8
20260507042207 41 115 2.0 3.0 0.00 0.00 0.00 82 1011.7
20260507041707 41 93 1.0 3.0 0.00 0.00 0.00 82 1011.8
20260507040705 42 93 0.0 0.0 0.00 0.00 0.00 81 1011.7
20260507040205 42 93 0.0 0.0 0.00 0.00 0.00 81 1011.7
20260507035704 42 93 0.0 0.0 0.00 0.00 0.00 81 1011.7
20260507035205 42 93 0.0 2.0 0.00 0.00 0.00 81 1011.8
20260507034705 42 93 0.0 2.0 0.00 0.00 0.00 81 1011.8
20260507034205 42 93 1.0 2.0 0.00 0.00 0.00 81 1011.8
20260507033705 42 93 1.0 3.0 0.00 0.00 0.00 81 1011.8
20260507033207 42 93 1.0 3.0 0.00 0.00 0.00 81 1011.8
20260507032705 42 93 1.0 3.0 0.00 0.00 0.00 81 1011.9
20260507032205 42 93 2.0 3.0 0.00 0.00 0.00 81 1011.9
20260507031705 42 93 1.0 2.0 0.00 0.00 0.00 81 1012.0
20260507031205 42 93 0.0 1.0 0.00 0.00 0.00 80 1012.0
20260507030704 42 93 0.0 1.0 0.00 0.00 0.00 80 1012.1
20260507030205 42 93 0.0 1.0 0.00 0.00 0.00 80 1012.1
20260507025705 42 93 0.0 1.0 0.00 0.00 0.00 80 1012.1
20260507025206 42 93 0.0 1.0 0.00 0.00 0.00 79 1012.1
20260507024205 42 93 0.0 2.0 0.00 0.00 0.00 78 1012.1
20260507023705 42 93 0.0 2.0 0.00 0.00 0.00 78 1012.0
20260507023205 42 93 0.0 2.0 0.00 0.00 0.00 78 1012.1
20260507022706 42 93 0.0 2.0 0.00 0.00 0.00 78 1012.0
20260507022206 42 93 1.0 2.0 0.00 0.00 0.00 77 1012.1
20260507021705 42 93 1.0 2.0 0.00 0.00 0.00 77 1012.0
20260507021206 43 93 1.0 2.0 0.00 0.00 0.00 77 1012.0
20260507020206 43 93 1.0 2.0 0.00 0.00 0.00 77 1012.1
20260507015704 43 93 1.0 2.0 0.00 0.00 0.00 76 1012.2
20260507015205 43 93 0.0 2.0 0.00 0.00 0.00 76 1012.2
20260507014206 43 93 0.0 4.0 0.00 0.00 0.00 76 1012.2
20260507013705 43 93 2.0 4.0 0.00 0.00 0.00 76 1012.3
20260507013205 43 91 2.0 4.0 0.00 0.00 0.00 76 1012.3
20260507012232 43 90 1.0 4.0 0.00 0.00 0.00 76 1012.2
20260507011705 43 93 1.0 4.0 0.00 0.00 0.00 76 1012.3
20260507011205 43 81 1.0 4.0 0.00 0.00 0.00 76 1012.2
20260507010705 43 128 2.0 4.0 0.00 0.00 0.00 76 1012.3
20260507010206 43 107 2.0 4.0 0.00 0.00 0.00 76 1012.3
20260507005206 44 123 3.0 6.0 0.00 0.00 0.00 75 1012.4
20260507004704 44 109 3.0 7.0 0.00 0.00 0.00 75 1012.3
20260507004205 44 119 3.0 7.0 0.00 0.00 0.00 75 1012.4
20260507003705 44 118 3.0 7.0 0.00 0.00 0.00 75 1012.4
20260507003205 44 123 3.0 7.0 0.00 0.00 0.00 74 1012.5
20260507001705 44 103 2.0 6.0 0.00 0.00 0.00 74 1012.6
20260507000706 44 102 2.0 4.0 0.00 0.00 0.00 74 1012.6
20260507000205 44 96 2.0 7.0 0.00 0.00 0.00 74 1012.6
20260506235705 45 110 3.0 7.0 0.00 0.00 0.00 74 1012.7
20260506235206 45 114 3.0 5.0 0.00 0.00 0.00 73 1012.7
20260506234226 45 116 3.0 6.0 0.00 0.00 0.00 73 1012.7
20260506233704 45 113 3.0 6.0 0.00 0.00 0.00 73 1012.8
20260506233205 45 110 3.0 6.0 0.00 0.00 0.00 73 1012.8
20260506232706 45 90 3.0 7.0 0.00 0.00 0.00 73 1012.8
20260506232206 45 119 3.0 7.0 0.00 0.00 0.00 72 1012.8
20260506231705 45 97 3.0 7.0 0.00 0.00 0.00 72 1012.8
20260506231205 45 138 3.0 7.0 0.00 0.00 0.00 72 1012.8
20260506230705 45 136 3.0 6.0 0.00 0.00 0.00 72 1012.8
20260506230205 45 131 3.0 6.0 0.00 0.00 0.00 72 1012.8
20260506225704 45 114 3.0 6.0 0.00 0.00 0.00 72 1012.9
20260506225206 45 111 3.0 7.0 0.00 0.00 0.00 72 1012.8
20260506224705 45 125 4.0 8.0 0.00 0.00 0.00 71 1012.8
20260506224205 45 119 4.0 8.0 0.00 0.00 0.00 71 1012.9
20260506223205 46 143 4.0 8.0 0.00 0.00 0.00 71 1012.9
20260506222705 46 116 4.0 8.0 0.00 0.00 0.00 71 1012.9
20260506221710 46 121 4.0 8.0 0.00 0.00 0.00 70 1013.0
20260506221205 46 120 4.0 9.0 0.00 0.00 0.00 70 1012.9
20260506220705 46 117 4.0 9.0 0.00 0.00 0.00 70 1012.9
20260506220209 46 117 4.0 12.0 0.00 0.00 0.00 70 1012.9
20260506215705 46 163 5.0 12.0 0.00 0.00 0.00 69 1012.9
20260506215207 46 142 6.0 12.0 0.00 0.00 0.00 69 1012.8
20260506214705 46 121 6.0 11.0 0.00 0.00 0.00 69 1012.8
20260506214205 46 127 7.0 12.0 0.00 0.00 0.00 69 1012.8
20260506213705 46 114 6.0 12.0 0.00 0.00 0.00 69 1012.9
20260506212704 46 139 6.0 11.0 0.00 0.00 0.00 69 1012.8
20260506212206 46 139 6.0 11.0 0.00 0.00 0.00 69 1012.9
20260506211705 46 107 7.0 12.0 0.00 0.00 0.00 69 1012.9
20260506211205 47 126 7.0 12.0 0.00 0.00 0.00 69 1012.9
20260506210706 47 142 7.0 12.0 0.00 0.00 0.00 69 1013.0
20260506210205 47 121 7.0 12.0 0.00 0.00 0.00 69 1013.0
20260506205705 47 147 7.0 12.0 0.00 0.00 0.00 69 1013.0
20260506205205 47 132 7.0 13.0 0.00 0.00 0.00 69 1013.0
20260506204705 47 131 7.0 13.0 0.00 0.00 0.00 69 1013.1
20260506204205 47 109 6.0 13.0 0.00 0.00 0.00 69 1013.0
20260506203706 47 131 7.0 11.0 0.00 0.00 0.00 69 1013.0
20260506203205 47 125 7.0 11.0 0.00 0.00 0.00 69 1013.1
20260506202706 47 104 7.0 11.0 0.00 0.00 0.00 69 1013.1
20260506202206 47 124 6.0 11.0 0.00 0.00 0.00 69 1013.1
20260506201705 47 134 6.0 15.0 0.00 0.00 0.00 69 1013.0
20260506201206 47 148 7.0 15.0 0.00 0.00 0.00 69 1013.0
20260506200205 47 117 8.0 13.0 0.00 0.00 0.00 68 1013.0
20260506195705 47 107 8.0 13.0 0.00 0.00 0.00 68 1013.0
20260506195205 47 126 8.0 13.0 0.00 0.00 0.00 68 1013.0
20260506193705 48 140 6.0 12.0 0.00 0.00 0.00 68 1013.1
20260506192705 48 127 7.0 12.0 0.00 0.00 0.00 69 1013.0
20260506192206 48 98 6.0 13.0 0.00 0.00 0.00 69 1013.0
20260506191705 48 74 6.0 13.0 0.00 0.00 0.00 68 1013.0
20260506191205 48 115 7.0 13.0 0.00 0.00 0.00 68 1013.0
20260506190709 48 96 7.0 13.0 0.00 0.00 0.00 67 1012.9
20260506190205 48 94 6.0 13.0 0.00 0.00 0.00 67 1012.9
20260506185705 48 103 7.0 13.0 0.00 0.00 0.00 67 1013.0
20260506185206 48 94 6.0 13.0 0.00 0.00 0.00 67 1013.0
20260506184704 48 82 7.0 12.0 0.00 0.00 0.00 67 1013.0
20260506183709 48 71 6.0 13.0 0.00 0.00 0.00 67 1013.0
20260506183205 48 105 7.0 14.0 0.00 0.00 0.00 67 1013.0
20260506182705 49 115 8.0 14.0 0.00 0.00 0.00 67 1013.1
20260506181705 49 114 8.0 14.0 0.00 0.00 0.00 66 1012.9
20260506181206 49 101 7.0 14.0 0.00 0.00 0.00 65 1012.9
20260506180705 49 93 6.0 13.0 0.00 0.00 0.00 65 1013.0
20260506180205 49 90 7.0 13.0 0.00 0.00 0.00 64 1013.0
20260506175705 49 115 7.0 12.0 0.00 0.00 0.00 64 1013.0
20260506175205 49 107 7.0 14.0 0.00 0.00 0.00 64 1013.0
20260506174705 49 68 8.0 14.0 0.00 0.00 0.00 64 1013.0
20260506174205 49 108 8.0 14.0 0.00 0.00 0.00 64 1013.0
20260506173705 50 96 8.0 13.0 0.00 0.00 0.00 63 1013.0
20260506173205 50 91 8.0 13.0 0.00 0.00 0.00 61 1013.1